When you browse on this site, cookies collect data to enhance your experience and personalize the content and advertising you see.
Visit our Privacy Policy to learn more. By continuing to use the site, you agree to this use of cookies and data.
  • în România
  • Lista ţărilor
  • Pe 7 zile
  • Temperatura apei
  • Hartă satelitară
  • Meteo pe hartă
  • Widget-uri
  • user-avatar
    Intrare

    Meteo pe oră la Senaki

    Astăzi, 27 Mai, Luni

    Timp Temperatura Precipitaţii Vânt Presiune Umiditate
    00:00 +16°C° 0.1 mm 1 m/s 763 mmHg 92%
    01:00 +15°C° 0 mm 1 m/s 763 mmHg 91%
    02:00 +15°C° 0 mm 1 m/s 763 mmHg 90%
    03:00 +15°C° 0 mm 1 m/s 763 mmHg 90%
    04:00 +15°C° 0 mm 1 m/s 763 mmHg 88%
    05:00 +16°C° 0 mm 1 m/s 763 mmHg 87%
    06:00 +16°C° 0 mm 1 m/s 763 mmHg 85%
    07:00 +19°C° 0 mm 1 m/s 763 mmHg 77%
    08:00 +21°C° 0 mm 1 m/s 763 mmHg 69%
    09:00 +23°C° 0 mm 1 m/s 763 mmHg 61%
    10:00 +24°C° 0 mm 1 m/s 762 mmHg 57%
    11:00 +25°C° 0 mm 1 m/s 762 mmHg 54%
    12:00 +26°C° 0 mm 2 m/s 762 mmHg 50%
    13:00 +26°C° 0 mm 2 m/s 762 mmHg 51%
    14:00 +26°C° 0 mm 3 m/s 762 mmHg 51%
    15:00 +26°C° 0 mm 3 m/s 762 mmHg 51%
    16:00 +26°C° 0 mm 3 m/s 762 mmHg 56%
    17:00 +25°C° 0 mm 3 m/s 762 mmHg 61%
    18:00 +24°C° 0 mm 2 m/s 762 mmHg 66%
    19:00 +21°C° 0 mm 2 m/s 763 mmHg 74%
    20:00 +20°C° 0 mm 1 m/s 763 mmHg 81%
    21:00 +16°C° 0 mm 0 m/s 764 mmHg 88%
    22:00 +18°C° 0 mm 1 m/s 764 mmHg 88%
    23:00 +18°C° 0 mm 1 m/s 764 mmHg 88%

    Mâine, 28 Mai, Marţi

    Timp Temperatura Precipitaţii Vânt Presiune Umiditate
    00:00 +16°C° 0 mm 1 m/s 764 mmHg 88%
    01:00 +16°C° 0 mm 1 m/s 764 mmHg 87%
    02:00 +16°C° 0 mm 1 m/s 764 mmHg 86%
    03:00 +16°C° 0 mm 1 m/s 763 mmHg 85%
    04:00 +16°C° 0 mm 2 m/s 763 mmHg 82%
    05:00 +17°C° 0 mm 2 m/s 763 mmHg 79%
    06:00 +17°C° 0 mm 2 m/s 763 mmHg 77%
    07:00 +20°C° 0 mm 2 m/s 763 mmHg 69%
    08:00 +23°C° 0 mm 2 m/s 762 mmHg 61%
    09:00 +26°C° 0 mm 2 m/s 762 mmHg 52%
    10:00 +27°C° 0 mm 1 m/s 762 mmHg 48%
    11:00 +29°C° 0 mm 1 m/s 762 mmHg 44%
    12:00 +30°C° 0 mm 1 m/s 761 mmHg 39%
    13:00 +30°C° 0 mm 1 m/s 761 mmHg 40%
    14:00 +30°C° 0 mm 2 m/s 761 mmHg 40%
    15:00 +29°C° 0 mm 2 m/s 761 mmHg 41%
    16:00 +28°C° 0 mm 2 m/s 761 mmHg 48%
    17:00 +27°C° 0 mm 2 m/s 761 mmHg 55%
    18:00 +26°C° 0 mm 2 m/s 761 mmHg 62%
    19:00 +24°C° 0 mm 1 m/s 761 mmHg 68%
    20:00 +22°C° 0 mm 1 m/s 762 mmHg 73%
    21:00 +20°C° 0 mm 1 m/s 762 mmHg 79%
    22:00 +20°C° 0 mm 1 m/s 762 mmHg 77%
    23:00 +18°C° 0 mm 2 m/s 762 mmHg 75%

    Poimâine, 29 Mai, Miercuri

    Timp Temperatura Precipitaţii Vânt Presiune Umiditate
    00:00 +18°C° 0 mm 2 m/s 762 mmHg 74%
    01:00 +18°C° 0 mm 2 m/s 762 mmHg 70%
    02:00 +18°C° 0 mm 2 m/s 762 mmHg 67%
    03:00 +18°C° 0 mm 2 m/s 762 mmHg 63%
    04:00 +19°C° 0 mm 2 m/s 761 mmHg 63%
    05:00 +19°C° 0 mm 2 m/s 761 mmHg 64%
    06:00 +19°C° 0 mm 2 m/s 761 mmHg 64%
    07:00 +22°C° 0 mm 3 m/s 761 mmHg 58%
    08:00 +25°C° 0 mm 3 m/s 760 mmHg 52%
    09:00 +28°C° 0 mm 4 m/s 760 mmHg 46%
    10:00 +29°C° 0 mm 4 m/s 760 mmHg 43%
    11:00 +31°C° 0 mm 3 m/s 760 mmHg 40%
    12:00 +33°C° 0 mm 3 m/s 759 mmHg 36%
    13:00 +34°C° 0 mm 3 m/s 759 mmHg 35%
    14:00 +34°C° 0 mm 2 m/s 759 mmHg 34%
    15:00 +34°C° 0 mm 1 m/s 759 mmHg 33%
    16:00 +33°C° 0 mm 1 m/s 759 mmHg 40%
    17:00 +31°C° 0 mm 1 m/s 759 mmHg 48%
    18:00 +30°C° 0 mm 1 m/s 759 mmHg 55%
    19:00 +28°C° 0 mm 1 m/s 759 mmHg 59%
    20:00 +25°C° 0 mm 1 m/s 760 mmHg 64%
    21:00 +23°C° 0 mm 1 m/s 760 mmHg 69%
    22:00 +23°C° 0 mm 1 m/s 760 mmHg 68%
    23:00 +21°C° 0 mm 2 m/s 760 mmHg 68%

    30 Mai, Joi

    Timp Temperatura Precipitaţii Vânt Presiune Umiditate
    00:00 +21°C° 0 mm 2 m/s 761 mmHg 67%
    01:00 +21°C° 0 mm 2 m/s 760 mmHg 66%
    02:00 +20°C° 0 mm 2 m/s 760 mmHg 65%
    03:00 +20°C° 0 mm 2 m/s 760 mmHg 63%
    04:00 +20°C° 0 mm 2 m/s 760 mmHg 64%
    05:00 +20°C° 0 mm 2 m/s 760 mmHg 65%
    06:00 +21°C° 0 mm 2 m/s 760 mmHg 65%
    07:00 +24°C° 0 mm 2 m/s 760 mmHg 59%
    08:00 +27°C° 0 mm 3 m/s 759 mmHg 52%
    09:00 +29°C° 0 mm 3 m/s 759 mmHg 45%
    10:00 +31°C° 0 mm 3 m/s 759 mmHg 41%
    11:00 +32°C° 0 mm 2 m/s 758 mmHg 38%
    12:00 +35°C° 0 mm 2 m/s 758 mmHg 34%
    13:00 +34°C° 0 mm 1 m/s 758 mmHg 34%
    14:00 +34°C° 0 mm 1 m/s 758 mmHg 33%
    15:00 +34°C° 0 mm 1 m/s 757 mmHg 32%
    16:00 +33°C° 0 mm 1 m/s 758 mmHg 40%
    17:00 +32°C° 0 mm 1 m/s 758 mmHg 47%
    18:00 +30°C° 0 mm 1 m/s 758 mmHg 55%
    19:00 +28°C° 0 mm 1 m/s 758 mmHg 60%
    20:00 +26°C° 0 mm 1 m/s 759 mmHg 65%
    21:00 +23°C° 0 mm 1 m/s 759 mmHg 71%
    22:00 +23°C° 0 mm 1 m/s 759 mmHg 69%
    23:00 +23°C° 0 mm 2 m/s 759 mmHg 67%

    31 Mai, Vineri

    Timp Temperatura Precipitaţii Vânt Presiune Umiditate
    00:00 +23°C° 0 mm 2 m/s 759 mmHg 65%
    01:00 +23°C° 0 mm 2 m/s 759 mmHg 60%
    02:00 +22°C° 0 mm 3 m/s 759 mmHg 54%
    03:00 +22°C° 0 mm 3 m/s 758 mmHg 49%
    04:00 +22°C° 0 mm 3 m/s 758 mmHg 49%
    05:00 +22°C° 0 mm 3 m/s 758 mmHg 50%
    06:00 +22°C° 0 mm 4 m/s 758 mmHg 51%
    07:00 +25°C° 0 mm 4 m/s 757 mmHg 47%
    08:00 +28°C° 0 mm 5 m/s 757 mmHg 44%
    09:00 +30°C° 0 mm 5 m/s 757 mmHg 41%
    10:00 +33°C° 0 mm 5 m/s 756 mmHg 38%
    11:00 +34°C° 0 mm 5 m/s 756 mmHg 35%
    12:00 +36°C° 0 mm 4 m/s 755 mmHg 31%
    13:00 +36°C° 0 mm 4 m/s 755 mmHg 31%
    14:00 +37°C° 0 mm 3 m/s 755 mmHg 30%
    15:00 +37°C° 0 mm 3 m/s 754 mmHg 29%
    16:00 +36°C° 0 mm 2 m/s 755 mmHg 36%
    17:00 +34°C° 0 mm 2 m/s 755 mmHg 42%
    18:00 +32°C° 0 mm 1 m/s 755 mmHg 49%
    19:00 +29°C° 0 mm 1 m/s 755 mmHg 54%
    20:00 +27°C° 0 mm 1 m/s 755 mmHg 58%
    21:00 +24°C° 0 mm 1 m/s 756 mmHg 63%
    22:00 +24°C° 0 mm 1 m/s 756 mmHg 63%
    23:00 +23°C° 0 mm 1 m/s 756 mmHg 63%

    1 Iunie, Sâmbătă

    Timp Temperatura Precipitaţii Vânt Presiune Umiditate
    00:00 +23°C° 0 mm 1 m/s 756 mmHg 63%
    01:00 +23°C° 0 mm 2 m/s 756 mmHg 60%
    02:00 +23°C° 0 mm 2 m/s 755 mmHg 56%
    03:00 +23°C° 0 mm 2 m/s 755 mmHg 53%
    04:00 +23°C° 0 mm 2 m/s 755 mmHg 55%
    05:00 +23°C° 0 mm 2 m/s 755 mmHg 57%
    06:00 +22°C° 0 mm 3 m/s 755 mmHg 58%
    07:00 +26°C° 0 mm 3 m/s 755 mmHg 52%
    08:00 +28°C° 0 mm 4 m/s 755 mmHg 46%
    09:00 +32°C° 0 mm 5 m/s 755 mmHg 40%
    10:00 +33°C° 0 mm 4 m/s 755 mmHg 39%
    11:00 +33°C° 0 mm 3 m/s 755 mmHg 38%
    12:00 +34°C° 0 mm 3 m/s 755 mmHg 37%
    13:00 +34°C° 0 mm 2 m/s 755 mmHg 39%
    14:00 +34°C° 0 mm 2 m/s 754 mmHg 41%
    15:00 +34°C° 0 mm 2 m/s 754 mmHg 43%
    16:00 +31°C° 0 mm 2 m/s 755 mmHg 50%
    17:00 +29°C° 0 mm 2 m/s 755 mmHg 57%
    18:00 +28°C° 0 mm 2 m/s 755 mmHg 63%
    19:00 +26°C° 0 mm 2 m/s 755 mmHg 70%
    20:00 +24°C° 0 mm 1 m/s 756 mmHg 77%
    21:00 +22°C° 0 mm 1 m/s 756 mmHg 85%
    22:00 +22°C° 0 mm 1 m/s 756 mmHg 83%
    23:00 +22°C° 0 mm 1 m/s 756 mmHg 81%
    Arată mai mult